#timestamp,LO_Frequency,Hit,StdDev 
1515240015.2,286046999.3,P
1515240035.1,286046999.2,N
1515240036.0,286046999.2,N
1515240055.8,286046996.7,N
1515240075.6,286046997.8,N
1515240095.5,286046997.9,N
1515240115.3,286046995.7,Y
1515240135.1,286046994.9,P
1515240155.9,286046995.3,N
1515240175.7,286046997.9,N
1515240195.6,286046995.3,Y
1515240215.4,286047001.2,P
1515240235.2,286046998.3,N
1515240255.1,286046996.5,N
1515240256.0,286046996.5,N
1515240275.8,286046999.6,N
1515240295.7,286046996.9,N
1515240315.5,286046995.4,N
1515240335.3,286046995.5,N
1515240355.2,286046995.4,N
1515240375.0,286046997.9,N
1515240375.9,286046997.9,N
1515240395.7,286046995.4,N
1515240415.6,286046995.4,N
1515240435.4,286046996.1,N
1515240455.3,286046996.4,N
1515240475.1,286046995.7,N
1515240476.0,286046995.7,N
1515240495.8,286046993.7,Y
1515240515.7,286046996.8,P
1515240535.5,286046997.5,P
1515240555.4,286046997.3,P
1515240575.2,286046997.9,Y
1515240595.0,286046998.2,P
1515240595.9,286046998.2,P
1515240615.8,286046998.1,P
1515240635.6,286046999.5,N
1515240655.5,286046996.5,Y
1515240675.3,286046998.1,P
1515240695.1,286047000.1,N
1515240715.9,286047000.8,N
1515240735.7,286047000.4,N
1515240755.5,286047000.5,N
1515240775.4,286046998.6,N
1515240795.2,286046998.5,N
1515240815.1,286047000.7,N
1515240816.0,286047000.7,N
1515240835.8,286047000.2,N
1515240855.6,286047001.1,N
1515240875.5,286047001.2,N
1515240895.3,286047000.7,N
1515240915.1,286046998.3,N
1515240935.9,286046999.5,N
1515240955.7,286046999.3,N
1515240975.6,286047001.2,N
1515240995.4,286046999.0,N
1515241015.2,286046998.7,N
1515241035.1,286046999.3,N
1515241036.0,286046999.3,N
1515241055.8,286047000.3,N
1515241075.6,286047000.9,N
1515241095.5,286046999.9,N
1515241115.3,286047001.7,N
1515241135.2,286046999.7,N
1515241155.9,286047000.8,N
1515241175.7,286047000.7,N
1515241195.6,286047000.6,N
1515241215.4,286047000.6,N
1515241235.3,286046998.5,N
1515241255.1,286046999.6,N
1515241256.0,286046999.6,N
1515241275.8,286046998.5,N
1515241295.7,286046998.5,N
1515241315.5,286046999.0,N
1515241335.3,286046999.4,N
1515241355.2,286046998.7,N
1515241375.0,286046998.8,N
1515241375.9,286046998.8,N
1515241395.8,286046998.8,N
1515241415.6,286046998.4,N
1515241435.4,286046997.0,Y
1515241455.3,286046999.0,P
1515241475.1,286047001.0,P
1515241495.8,286046998.7,N
1515241515.7,286047001.0,N
1515241535.5,286047001.0,N
1515241555.4,286047000.6,N
1515241575.2,286047000.6,N
1515241595.0,286046998.2,N
1515241595.9,286046998.2,N
1515241615.8,286047000.5,N
1515241635.6,286047000.6,N
1515241655.4,286047000.6,N
1515241675.3,286047000.6,N
1515241695.1,286047001.0,N
1515241715.9,286047000.8,N
1515241735.7,286047001.2,N
1515241755.5,286047000.5,N
1515241775.4,286046998.2,N
1515241795.2,286047001.0,N
1515241815.0,286047002.3,N
1515241816.0,286047002.3,N
1515241835.8,286047000.4,N
1515241855.6,286047001.0,N
1515241875.5,286047001.2,N
1515241895.3,286046998.3,N
1515241915.1,286047002.0,N
1515241935.9,286047002.3,N
1515241955.7,286047001.7,N
1515241975.6,286047001.6,N
1515241995.4,286047001.7,N
1515242015.2,286047001.6,N
1515242035.1,286047001.8,N
1515242036.0,286047001.8,N
1515242055.8,286047001.6,N
1515242075.6,286047004.0,Y
1515242095.5,286047004.1,P
1515242115.3,286047001.9,N
1515242135.2,286047001.8,N
1515242155.9,286047001.8,N
1515242175.7,286047001.4,N
1515242195.6,286047002.4,N
1515242215.4,286047002.8,N
1515242235.2,286047000.2,N
1515242255.1,286047002.4,N
1515242256.0,286047002.4,N
1515242275.8,286047002.5,N
1515242295.7,286047000.3,N
1515242315.5,286047000.3,N
1515242335.3,286047000.0,N
1515242355.2,286047000.0,N
1515242375.0,286047000.1,N
1515242375.9,286047000.1,N
1515242395.8,286047002.1,N
1515242415.6,286047002.0,N
1515242435.4,286047003.8,Y
1515242455.3,286047000.2,P
1515242475.1,286047000.2,N
1515242495.8,286047001.0,N
1515242515.7,286046999.7,N
1515242535.5,286047000.1,N
1515242555.4,286046999.3,N
1515242575.2,286047000.9,N
1515242595.0,286047001.6,N
1515242595.9,286047001.6,N
1515242615.8,286047001.5,N
1515242635.6,286047002.8,Y
1515242655.5,286047000.6,P
1515242675.3,286047000.2,P
1515242695.1,286047000.0,N
1515242715.9,286047002.8,Y
1515242735.7,286046998.2,P
1515242755.5,286047002.6,N
1515242775.4,286047000.0,N
1515242795.2,286047002.4,N
1515242815.1,286047002.1,N
1515242816.0,286047002.1,N
1515242835.8,286047002.7,N
1515242855.6,286047002.3,N
1515242875.5,286047001.2,N
1515242895.3,286047000.8,N
1515242915.1,286046998.3,N
1515242935.9,286046999.4,N
1515242955.7,286046996.6,N
1515242975.6,286046997.1,N
1515242995.4,286046997.3,N
1515243015.2,286046998.0,N
1515243035.1,286046997.4,N
1515243036.0,286046997.4,N
1515243055.8,286046997.9,N
1515243075.7,286046996.8,N
1515243095.5,286046994.9,N
1515243115.3,286046997.1,N
1515243135.2,286046997.7,N
1515243155.9,286046996.9,N
1515243175.7,286046995.0,N
1515243195.6,286046997.5,N
1515243215.4,286046995.7,N
1515243235.3,286046997.9,N
1515243255.1,286046997.0,N
1515243256.0,286046997.0,N
1515243275.8,286046997.1,N
1515243295.7,286046997.7,N
1515243315.5,286046997.5,N
1515243335.3,286046994.9,N
1515243355.2,286046997.4,N
1515243375.0,286046995.1,N
1515243375.9,286046995.1,N
1515243395.8,286046995.4,N
1515243415.6,286046995.5,Y
1515243435.4,286046998.1,P
1515243455.3,286046998.5,P
1515243475.1,286046998.4,N
1515243495.9,286046998.8,N
1515243515.7,286046999.6,N
1515243535.5,286046997.0,Y
1515243555.4,286047000.7,P
1515243575.2,286047000.8,N
1515243595.0,286047000.7,N
1515243595.9,286047000.7,N
